Regional Weather Roundup
Issued by NWS

Home | Current Version | Previous Version | Text Only | Print | Product List | Glossary Off
Versions: 1 2 3 4 5 6 7 8 9 10 11 12 13 14 15 16 17 18 19 20 21 22 23 24 25 26 27 28 29 30 31 32 33 34 35 36 37 38 39 40 41 42 43 44 45 46 47 48 49 50

000
ASUS44 KMEG 202000
RWRTN
TENNESSEE HOURLY STATE WEATHER ROUNDUP
NATIONAL WEATHER SERVICE MEMPHIS TN
300 PM CDT WED AUG 20 2014

TNZ002-004-019-021-049-052-054-088>092-202100-
WEST TENNESSEE

CITY           SKY/WX    TMP DP  RH WIND       PRES   REMARKS
MEMPHIS INTL   MOSUNNY   94  69  44 SW8       30.02F HX  99
NWS MEMPHIS      N/A     94 N/A N/A MISG        N/A
JACKSON        MOSUNNY   93  73  52 SW7       30.01F HX 102
DYERSBURG      SUNNY     93  70  46 W10       30.00F HX  99
UNION CITY     MOSUNNY   91  79  66 SW10      29.97F HX 107
PARIS          MOSUNNY   90  77  66 SW9       29.99F HX 102
SAVANNAH       MOSUNNY   91  73  55 SW10      30.02F HX 100
$$

TNZ008-025-027-028-033-062-065-066-202100-
NORTH MIDDLE TENNESSEE

CITY           SKY/WX    TMP DP  RH WIND       PRES   REMARKS
NASHVILLE      PTSUNNY   93  73  52 W6G16     29.97S HX 102
CLARKSVILLE    MOSUNNY   94  71  47 W8G20     29.95F HX 101
COOKEVILLE     SUNNY     84  79  84 CALM      30.02R HX  96
CROSSVILLE     PTSUNNY   85  71  63 SW8       30.06F HX  90
$$

TNZ061-075-076-078-094-096-097-202100-
SOUTH MIDDLE TENNESSEE

CITY           SKY/WX    TMP DP  RH WIND       PRES   REMARKS
SHELBYVILLE    SUNNY     95  75  52 W14       30.01R HX 107
$$

TNZ017-018-042-046-047-202100-
NORTHEAST TENNESSEE

CITY           SKY/WX    TMP DP  RH WIND       PRES   REMARKS
TRI CITIES     MOSUNNY   85  70  60 NW9       30.04F
ELIZABETHTON   CLEAR     84  70  61 W3        30.04F
$$

TNZ012-013-036-069-073-074-202100-
CENTRAL EAST TENNESSEE

CITY           SKY/WX    TMP DP  RH WIND       PRES   REMARKS
KNOXVILLE      TSTM      74  65  73 NE18G31   30.04R
OAK RIDGE      HVY RAIN  72  70  93 VRB5      30.03F VSB 3/4
GATLINBURG     PTCLDY    84  72  65 W6        30.02R
$$

TNZ083-085-099-202100-
SOUTHEAST TENNESSEE

CITY           SKY/WX    TMP DP  RH WIND       PRES   REMARKS
CHATTANOOGA    MOSUNNY   93  71  48 SW7       29.99F HX 100
$$

SKY/WX REPORTED AS FAIR MEANS FEW OR NO CLOUDS BELOW
12 THOUSAND FEET.



USA.gov is the U.S. government's official web portal to all federal, state and local government web resources and services.